TimeEET,TemperatureF,Dew PointF,Humidity,Sea Level PressureIn,VisibilityMPH,Wind Direction,Wind SpeedMPH,Gust SpeedMPH,PrecipitationIn,Events,Conditions,WindDirDegrees,DateUTC
12:50 AM,33.8,32.0,93,30.30,6.2,ENE,2.3,-,N/A,,Partly Cloudy,60,2012-11-16 22:50:00
2:00 AM,33,31,90,,7,ENE,2.3,,,,Scattered Clouds,60,2012-11-17 00:00:00
3:50 AM,30.2,28.4,93,30.30,6.2,East,2.3,-,N/A,,Partly Cloudy,80,2012-11-17 01:50:00
4:50 AM,30.2,28.4,93,30.30,6.2,East,3.5,-,N/A,,Partly Cloudy,80,2012-11-17 02:50:00
5:50 AM,30.2,26.6,86,30.30,6.2,East,5.8,-,N/A,,Partly Cloudy,80,2012-11-17 03:50:00
6:50 AM,33.8,30.2,87,30.30,6.2,ENE,3.5,-,N/A,,Partly Cloudy,60,2012-11-17 04:50:00
7:50 AM,44.6,32.0,61,30.33,6.2,Variable,2.3,-,N/A,,Partly Cloudy,0,2012-11-17 05:50:00
8:00 AM,45,33,53,,7,ENE,2.3,,,,Scattered Clouds,70,2012-11-17 06:00:00
8:50 AM,48.2,30.2,50,30.33,6.2,West,4.6,-,N/A,,Partly Cloudy,280,2012-11-17 06:50:00
9:50 AM,50.0,28.4,43,30.30,6.2,West,4.6,-,N/A,,Partly Cloudy,260,2012-11-17 07:50:00
10:50 AM,50.0,33.8,54,30.30,6.2,WNW,5.8,-,N/A,,Partly Cloudy,300,2012-11-17 08:50:00
11:50 AM,50.0,33.8,54,30.27,6.2,WNW,5.8,-,N/A,,Partly Cloudy,290,2012-11-17 09:50:00
12:50 PM,50.0,33.8,54,30.27,6.2,West,4.6,-,N/A,,Partly Cloudy,280,2012-11-17 10:50:00
1:50 PM,51.8,33.8,50,30.24,6.2,West,4.6,-,N/A,,Partly Cloudy,270,2012-11-17 11:50:00
2:00 PM,51,34,40,,12,West,4.6,,,,Scattered Clouds,270,2012-11-17 12:00:00
2:50 PM,50.0,33.8,54,30.27,6.2,WSW,4.6,-,N/A,,Partly Cloudy,250,2012-11-17 12:50:00
4:50 PM,41.0,33.8,76,30.27,6.2,SE,3.5,-,N/A,,Partly Cloudy,140,2012-11-17 14:50:00
5:50 PM,39.2,33.8,81,30.27,6.2,ESE,3.5,-,N/A,,Partly Cloudy,110,2012-11-17 15:50:00
6:50 PM,37.4,33.8,87,30.27,6.2,East,2.3,-,N/A,,Partly Cloudy,90,2012-11-17 16:50:00
7:50 PM,33.8,30.2,87,30.27,6.2,Calm,Calm,-,N/A,,Partly Cloudy,0,2012-11-17 17:50:00
8:00 PM,33,31,90,,7,Calm,Calm,,,,Scattered Clouds,,2012-11-17 18:00:00
8:50 PM,33.8,32.0,93,30.27,6.2,East,2.3,-,N/A,,Partly Cloudy,90,2012-11-17 18:50:00
9:50 PM,33.8,32.0,93,30.27,6.2,East,2.3,-,N/A,,Partly Cloudy,100,2012-11-17 19:50:00
10:50 PM,32.0,32.0,100,30.24,6.2,ENE,2.3,-,N/A,,Partly Cloudy,60,2012-11-17 20:50:00
11:50 PM,32.0,28.4,87,30.24,6.2,ENE,3.5,-,N/A,,Partly Cloudy,70,2012-11-17 21:50:00